Year,Month,Day,Hour,Minute,Value (Times are PST for temperature in C)
2013,04,11,00,00,7.60
2013,04,11,00,01,7.60
2013,04,11,00,02,7.60
2013,04,11,00,03,7.60
2013,04,11,00,04,7.50
2013,04,11,00,05,7.50
2013,04,11,00,06,7.50
2013,04,11,00,07,7.50
2013,04,11,00,08,7.50
2013,04,11,00,09,7.50
2013,04,11,00,10,7.40
2013,04,11,00,11,7.40
2013,04,11,00,12,7.30
2013,04,11,00,13,7.30
2013,04,11,00,14,7.30
2013,04,11,00,15,7.20
2013,04,11,00,16,7.20
2013,04,11,00,17,7.20
2013,04,11,00,18,7.10
2013,04,11,00,19,7.10
2013,04,11,00,20,7.10
2013,04,11,00,21,7.10
2013,04,11,00,22,7.10
2013,04,11,00,23,7.10
2013,04,11,00,24,7.00
2013,04,11,00,25,7.00
2013,04,11,00,26,7.00
2013,04,11,00,27,6.90
2013,04,11,00,28,6.90
2013,04,11,00,29,6.80
2013,04,11,00,30,6.80
2013,04,11,00,31,6.80
2013,04,11,00,32,6.80
2013,04,11,00,33,6.80
2013,04,11,00,34,6.70
2013,04,11,00,35,6.70
2013,04,11,00,36,6.70
2013,04,11,00,37,6.70
2013,04,11,00,38,6.70
2013,04,11,00,39,6.70
2013,04,11,00,40,6.70
2013,04,11,00,41,6.70
2013,04,11,00,42,6.70
2013,04,11,00,43,6.70
2013,04,11,00,44,6.70
2013,04,11,00,45,6.70
2013,04,11,00,46,6.70
2013,04,11,00,47,6.70
2013,04,11,00,48,6.70
2013,04,11,00,49,6.70
2013,04,11,00,50,6.70
2013,04,11,00,51,6.70
2013,04,11,00,52,6.70
2013,04,11,00,53,6.70
2013,04,11,00,54,6.70
2013,04,11,00,55,6.70
2013,04,11,00,56,6.70
2013,04,11,00,57,6.70
2013,04,11,00,58,6.70
2013,04,11,00,59,6.70
2013,04,11,01,00,6.70
2013,04,11,01,01,6.70
2013,04,11,01,02,6.70
2013,04,11,01,03,6.70
2013,04,11,01,04,6.70
2013,04,11,01,05,6.70
2013,04,11,01,06,6.70
2013,04,11,01,07,6.70
2013,04,11,01,08,6.70
2013,04,11,01,09,6.70
2013,04,11,01,10,6.70
2013,04,11,01,11,6.70
2013,04,11,01,12,6.70
2013,04,11,01,13,6.70
2013,04,11,01,14,6.70
2013,04,11,01,15,6.70
2013,04,11,01,16,6.70
2013,04,11,01,17,6.70
2013,04,11,01,18,6.70
2013,04,11,01,19,6.70
2013,04,11,01,20,6.70
2013,04,11,01,21,6.70
2013,04,11,01,22,6.70
2013,04,11,01,23,6.70
2013,04,11,01,24,6.70
2013,04,11,01,25,6.70
2013,04,11,01,26,6.70
2013,04,11,01,27,6.70
2013,04,11,01,28,6.70
2013,04,11,01,29,6.70
2013,04,11,01,30,6.70
2013,04,11,01,31,6.70
2013,04,11,01,32,6.60
2013,04,11,01,33,6.70
2013,04,11,01,34,6.60
2013,04,11,01,35,6.60
2013,04,11,01,36,6.60
2013,04,11,01,37,6.60
2013,04,11,01,38,6.60
2013,04,11,01,39,6.60
2013,04,11,01,40,6.60
2013,04,11,01,41,6.60
2013,04,11,01,42,6.60
2013,04,11,01,43,6.60
2013,04,11,01,44,6.60
2013,04,11,01,45,6.60
2013,04,11,01,46,6.50
2013,04,11,01,47,6.50
2013,04,11,01,48,6.50
2013,04,11,01,49,6.50
2013,04,11,01,50,6.40
2013,04,11,01,51,6.40
2013,04,11,01,52,6.40
2013,04,11,01,53,6.40
2013,04,11,01,54,6.40
2013,04,11,01,55,6.40
2013,04,11,01,56,6.30
2013,04,11,01,57,6.30
2013,04,11,01,58,6.30
2013,04,11,01,59,6.30
2013,04,11,02,00,6.30
2013,04,11,02,01,6.20
2013,04,11,02,02,6.20
2013,04,11,02,03,6.20
2013,04,11,02,04,6.10
2013,04,11,02,05,6.10
2013,04,11,02,06,6.00
2013,04,11,02,07,6.00
2013,04,11,02,08,6.00
2013,04,11,02,09,5.90
2013,04,11,02,10,5.90
2013,04,11,02,11,5.90
2013,04,11,02,12,5.90
2013,04,11,02,13,5.90
2013,04,11,02,14,5.90
2013,04,11,02,15,5.90
2013,04,11,02,16,5.80
2013,04,11,02,17,5.80
2013,04,11,02,18,5.80
2013,04,11,02,19,5.80
2013,04,11,02,20,5.80
2013,04,11,02,21,5.80
2013,04,11,02,22,5.80
2013,04,11,02,23,5.80
2013,04,11,02,24,5.80
2013,04,11,02,25,5.80
2013,04,11,02,26,5.80
2013,04,11,02,27,5.80
2013,04,11,02,28,5.80
2013,04,11,02,29,5.80
2013,04,11,02,30,5.80
2013,04,11,02,31,5.70
2013,04,11,02,32,5.70
2013,04,11,02,33,5.70
2013,04,11,02,34,5.70
2013,04,11,02,35,5.70
2013,04,11,02,36,5.70
2013,04,11,02,37,5.70
2013,04,11,02,38,5.70
2013,04,11,02,39,5.60
2013,04,11,02,40,5.60
2013,04,11,02,41,5.60
2013,04,11,02,42,5.60
2013,04,11,02,43,5.60
2013,04,11,02,44,5.60
2013,04,11,02,45,5.60
2013,04,11,02,46,5.50
2013,04,11,02,47,5.50
2013,04,11,02,48,5.50
2013,04,11,02,49,5.50
2013,04,11,02,50,5.40
2013,04,11,02,51,5.40
2013,04,11,02,52,5.40
2013,04,11,02,53,5.40
2013,04,11,02,54,5.30
2013,04,11,02,55,5.30
2013,04,11,02,56,5.30
2013,04,11,02,57,5.30
2013,04,11,02,58,5.30
2013,04,11,02,59,5.30
2013,04,11,03,00,5.30
2013,04,11,03,01,5.30
2013,04,11,03,02,5.30
2013,04,11,03,03,5.30
2013,04,11,03,04,5.30
2013,04,11,03,05,5.20
2013,04,11,03,06,5.20
2013,04,11,03,07,5.20
2013,04,11,03,08,5.20
2013,04,11,03,09,5.20
2013,04,11,03,10,5.20
2013,04,11,03,11,5.20
2013,04,11,03,12,5.20
2013,04,11,03,13,5.10
2013,04,11,03,14,5.10
2013,04,11,03,15,5.10
2013,04,11,03,16,5.10
2013,04,11,03,17,5.00
2013,04,11,03,18,5.00
2013,04,11,03,19,5.00
2013,04,11,03,20,4.90
2013,04,11,03,21,4.90
2013,04,11,03,22,4.90
2013,04,11,03,23,4.90
2013,04,11,03,24,4.90
2013,04,11,03,25,4.90
2013,04,11,03,26,4.80
2013,04,11,03,27,4.80
2013,04,11,03,28,4.80
2013,04,11,03,29,4.80
2013,04,11,03,30,4.80
2013,04,11,03,31,4.70
2013,04,11,03,32,4.70
2013,04,11,03,33,4.70
2013,04,11,03,34,4.60
2013,04,11,03,35,4.60
2013,04,11,03,36,4.60
2013,04,11,03,37,4.60
2013,04,11,03,38,4.60
2013,04,11,03,39,4.60
2013,04,11,03,40,4.60
2013,04,11,03,41,4.60
2013,04,11,03,42,4.50
2013,04,11,03,43,4.50
2013,04,11,03,44,4.50
2013,04,11,03,45,4.50
2013,04,11,03,46,4.50
2013,04,11,03,47,4.50
2013,04,11,03,48,4.40
2013,04,11,03,49,4.40
2013,04,11,03,50,4.40
2013,04,11,03,51,4.40
2013,04,11,03,52,4.40
2013,04,11,03,53,4.40
2013,04,11,03,54,4.40
2013,04,11,03,55,4.40
2013,04,11,03,56,4.40
2013,04,11,03,57,4.40
2013,04,11,03,58,4.40
2013,04,11,03,59,4.40
2013,04,11,04,00,4.40
2013,04,11,04,01,4.40
2013,04,11,04,02,4.40
2013,04,11,04,03,4.40
2013,04,11,04,04,4.40
2013,04,11,04,05,4.40
2013,04,11,04,06,4.30
2013,04,11,04,07,4.30
2013,04,11,04,08,4.30
2013,04,11,04,09,4.30
2013,04,11,04,10,4.30
2013,04,11,04,11,4.30
2013,04,11,04,12,4.30
2013,04,11,04,13,4.30
2013,04,11,04,14,4.30
2013,04,11,04,15,4.30
2013,04,11,04,16,4.30
2013,04,11,04,17,4.20
2013,04,11,04,18,4.20
2013,04,11,04,19,4.20
2013,04,11,04,20,4.20
2013,04,11,04,21,4.20
2013,04,11,04,22,4.20
2013,04,11,04,23,4.20
2013,04,11,04,24,4.20
2013,04,11,04,25,4.20
2013,04,11,04,26,4.20
2013,04,11,04,27,4.20
2013,04,11,04,28,4.20
2013,04,11,04,29,4.20
2013,04,11,04,30,4.20
2013,04,11,04,31,4.20
2013,04,11,04,32,4.20
2013,04,11,04,33,4.20
2013,04,11,04,34,4.20
2013,04,11,04,35,4.20
2013,04,11,04,36,4.20
2013,04,11,04,37,4.20
2013,04,11,04,38,4.20
2013,04,11,04,39,4.20
2013,04,11,04,40,4.20
2013,04,11,04,41,4.20
2013,04,11,04,42,4.20
2013,04,11,04,43,4.20
2013,04,11,04,44,4.20
2013,04,11,04,45,4.20
2013,04,11,04,46,4.20
2013,04,11,04,47,4.20
2013,04,11,04,48,4.20
2013,04,11,04,49,4.20
2013,04,11,04,50,4.20
2013,04,11,04,51,4.20
2013,04,11,04,52,4.20
2013,04,11,04,53,4.20
2013,04,11,04,54,4.20
2013,04,11,04,55,4.20
2013,04,11,04,56,4.20
2013,04,11,04,57,4.20
2013,04,11,04,58,4.20
2013,04,11,04,59,4.10
2013,04,11,05,00,4.10
2013,04,11,05,01,4.10
2013,04,11,05,02,4.10
2013,04,11,05,03,4.10
2013,04,11,05,04,4.10
2013,04,11,05,05,4.10
2013,04,11,05,06,4.10
2013,04,11,05,07,4.10
2013,04,11,05,08,4.10
2013,04,11,05,09,4.10
2013,04,11,05,10,4.10
2013,04,11,05,11,4.10
2013,04,11,05,12,4.10
2013,04,11,05,13,4.10
2013,04,11,05,14,4.10
2013,04,11,05,15,4.10
2013,04,11,05,16,4.10
2013,04,11,05,17,4.00
2013,04,11,05,18,4.10
2013,04,11,05,19,4.00
2013,04,11,05,20,4.00
2013,04,11,05,21,4.00
2013,04,11,05,22,4.00
2013,04,11,05,23,4.00
2013,04,11,05,24,4.00
2013,04,11,05,25,4.00
2013,04,11,05,26,4.00
2013,04,11,05,27,4.00
2013,04,11,05,28,4.00
2013,04,11,05,29,4.00
2013,04,11,05,30,4.00
2013,04,11,05,31,4.00
2013,04,11,05,32,4.00
2013,04,11,05,33,4.00
2013,04,11,05,34,4.00
2013,04,11,05,35,4.00
2013,04,11,05,36,4.00
2013,04,11,05,37,4.00
2013,04,11,05,38,4.00
2013,04,11,05,39,4.00
2013,04,11,05,40,4.00
2013,04,11,05,41,4.00
2013,04,11,05,42,4.10
2013,04,11,05,43,4.10
2013,04,11,05,44,4.10
2013,04,11,05,45,4.10
2013,04,11,05,46,4.10
2013,04,11,05,47,4.10
2013,04,11,05,48,4.10
2013,04,11,05,49,4.10
2013,04,11,05,50,4.10
2013,04,11,05,51,4.10
2013,04,11,05,52,4.10
2013,04,11,05,53,4.10
2013,04,11,05,54,4.10
2013,04,11,05,55,4.10
2013,04,11,05,56,4.10
2013,04,11,05,57,4.10
2013,04,11,05,58,4.10
2013,04,11,05,59,4.10
2013,04,11,06,00,4.10
2013,04,11,06,01,4.10
2013,04,11,06,02,4.10
2013,04,11,06,03,4.10
2013,04,11,06,04,4.10
2013,04,11,06,05,4.10
2013,04,11,06,06,4.10
2013,04,11,06,07,4.10
2013,04,11,06,08,4.10
2013,04,11,06,09,4.10
2013,04,11,06,10,4.10
2013,04,11,06,11,4.10
2013,04,11,06,12,4.10
2013,04,11,06,13,4.10
2013,04,11,06,14,4.10
2013,04,11,06,15,4.10
2013,04,11,06,16,4.10
2013,04,11,06,17,4.10
2013,04,11,06,18,4.10
2013,04,11,06,19,4.10
2013,04,11,06,20,4.10
2013,04,11,06,21,4.10
2013,04,11,06,22,4.10
2013,04,11,06,23,4.00
2013,04,11,06,24,4.00
2013,04,11,06,25,4.00
2013,04,11,06,26,4.00
2013,04,11,06,27,4.00
2013,04,11,06,28,4.00
2013,04,11,06,29,4.00
2013,04,11,06,30,4.00
2013,04,11,06,31,4.00
2013,04,11,06,32,4.00
2013,04,11,06,33,4.00
2013,04,11,06,34,4.00
2013,04,11,06,35,4.00
2013,04,11,06,36,4.00
2013,04,11,06,37,4.00
2013,04,11,06,38,4.00
2013,04,11,06,39,4.00
2013,04,11,06,40,4.00
2013,04,11,06,41,4.00
2013,04,11,06,42,4.00
2013,04,11,06,43,4.00
2013,04,11,06,44,4.00
2013,04,11,06,45,4.00
2013,04,11,06,46,4.00
2013,04,11,06,47,4.00
2013,04,11,06,48,4.00
2013,04,11,06,49,4.00
2013,04,11,06,50,4.00
2013,04,11,06,51,4.00
2013,04,11,06,52,4.00
2013,04,11,06,53,4.00
2013,04,11,06,54,3.90
2013,04,11,06,55,3.90
2013,04,11,06,56,3.90
2013,04,11,06,57,3.90
2013,04,11,06,58,3.90
2013,04,11,06,59,3.90
2013,04,11,07,00,3.90
2013,04,11,07,01,3.90
2013,04,11,07,02,3.90
2013,04,11,07,03,4.00
2013,04,11,07,04,4.00
2013,04,11,07,05,4.00
2013,04,11,07,06,4.00
2013,04,11,07,07,4.00
2013,04,11,07,08,4.00
2013,04,11,07,09,4.00
2013,04,11,07,10,4.00
2013,04,11,07,11,4.00
2013,04,11,07,12,4.00
2013,04,11,07,13,4.00
2013,04,11,07,14,4.00
2013,04,11,07,15,4.00
2013,04,11,07,16,4.00
2013,04,11,07,17,4.00
2013,04,11,07,18,4.00
2013,04,11,07,19,4.00
2013,04,11,07,20,4.00
2013,04,11,07,21,4.00
2013,04,11,07,22,4.00
2013,04,11,07,23,4.00
2013,04,11,07,24,4.00
2013,04,11,07,25,4.00
2013,04,11,07,26,4.00
2013,04,11,07,27,4.00
2013,04,11,07,28,4.00
2013,04,11,07,29,4.00
2013,04,11,07,30,4.00
2013,04,11,07,31,4.00
2013,04,11,07,32,4.00
2013,04,11,07,33,4.00
2013,04,11,07,34,4.00
2013,04,11,07,35,4.00
2013,04,11,07,36,3.90
2013,04,11,07,37,3.90
2013,04,11,07,38,3.90
2013,04,11,07,39,3.90
2013,04,11,07,40,3.90
2013,04,11,07,41,3.90
2013,04,11,07,42,3.90
2013,04,11,07,43,3.90
2013,04,11,07,44,3.90
2013,04,11,07,45,3.90
2013,04,11,07,46,3.90
2013,04,11,07,47,3.90
2013,04,11,07,48,3.90
2013,04,11,07,49,3.90
2013,04,11,07,50,3.90
2013,04,11,07,51,3.90
2013,04,11,07,52,3.90
2013,04,11,07,53,3.90
2013,04,11,07,54,3.90
2013,04,11,07,55,3.90
2013,04,11,07,56,3.90
2013,04,11,07,57,3.90
2013,04,11,07,58,3.90
2013,04,11,07,59,3.90
2013,04,11,08,00,3.90
2013,04,11,08,01,3.90
2013,04,11,08,02,3.90
2013,04,11,08,03,3.90
2013,04,11,08,04,3.80
2013,04,11,08,05,3.80
2013,04,11,08,06,3.80
2013,04,11,08,07,3.80
2013,04,11,08,08,3.80
2013,04,11,08,09,3.80
2013,04,11,08,10,3.80
2013,04,11,08,11,3.80
2013,04,11,08,12,3.80
2013,04,11,08,13,3.80
2013,04,11,08,14,3.80
2013,04,11,08,15,3.80
2013,04,11,08,16,3.80
2013,04,11,08,17,3.80
2013,04,11,08,18,3.80
2013,04,11,08,19,3.70
2013,04,11,08,20,3.70
2013,04,11,08,21,3.70
2013,04,11,08,22,3.70
2013,04,11,08,23,3.70
2013,04,11,08,24,3.70
2013,04,11,08,25,3.70
2013,04,11,08,26,3.70
2013,04,11,08,27,3.70
2013,04,11,08,28,3.70
2013,04,11,08,29,3.70
2013,04,11,08,30,3.70
2013,04,11,08,31,3.70
2013,04,11,08,32,3.80
2013,04,11,08,33,3.70
2013,04,11,08,34,3.80
2013,04,11,08,35,3.80
2013,04,11,08,36,3.80
2013,04,11,08,37,3.80
2013,04,11,08,38,3.80
2013,04,11,08,39,3.80
2013,04,11,08,40,3.80
2013,04,11,08,41,3.80
2013,04,11,08,42,3.80
2013,04,11,08,43,3.80
2013,04,11,08,44,3.80
2013,04,11,08,45,3.80
2013,04,11,08,46,3.90
2013,04,11,08,47,3.90
2013,04,11,08,48,3.90
2013,04,11,08,49,4.00
2013,04,11,08,50,4.10
2013,04,11,08,51,4.10
2013,04,11,08,52,4.20
2013,04,11,08,53,4.20
2013,04,11,08,54,4.20
2013,04,11,08,55,4.30
2013,04,11,08,56,4.30
2013,04,11,08,57,4.40
2013,04,11,08,58,4.50
2013,04,11,08,59,4.50
2013,04,11,09,00,4.60
2013,04,11,09,01,4.70
2013,04,11,09,02,4.70
2013,04,11,09,03,4.80
2013,04,11,09,04,4.80
2013,04,11,09,05,4.90
2013,04,11,09,06,4.90
2013,04,11,09,07,5.00
2013,04,11,09,08,5.00
2013,04,11,09,09,5.20
2013,04,11,09,10,5.20
2013,04,11,09,11,5.30
2013,04,11,09,12,5.40
2013,04,11,09,13,5.40
2013,04,11,09,14,5.50
2013,04,11,09,15,5.60
2013,04,11,09,16,5.60
2013,04,11,09,17,5.60
2013,04,11,09,18,5.70
2013,04,11,09,19,5.70
2013,04,11,09,20,5.70
2013,04,11,09,21,5.70
2013,04,11,09,22,5.70
2013,04,11,09,23,5.70
2013,04,11,09,24,5.80
2013,04,11,09,25,5.70
2013,04,11,09,26,5.70
2013,04,11,09,27,5.70
2013,04,11,09,28,5.70
2013,04,11,09,29,5.80
2013,04,11,09,30,5.80
2013,04,11,09,31,5.80
2013,04,11,09,32,5.90
2013,04,11,09,33,5.90
2013,04,11,09,34,5.90
2013,04,11,09,35,5.90
2013,04,11,09,36,5.90
2013,04,11,09,37,5.90
2013,04,11,09,38,5.90
2013,04,11,09,39,5.90
2013,04,11,09,40,5.90
2013,04,11,09,41,5.90
2013,04,11,09,42,5.80
2013,04,11,09,43,5.80
2013,04,11,09,44,5.80
2013,04,11,09,45,5.80
2013,04,11,09,46,5.80
2013,04,11,09,47,5.80
2013,04,11,09,48,5.80
2013,04,11,09,49,5.90
2013,04,11,09,50,5.90
2013,04,11,09,51,6.00
2013,04,11,09,52,6.10
2013,04,11,09,53,6.20
2013,04,11,09,54,6.30
2013,04,11,09,55,6.40
2013,04,11,09,56,6.50
2013,04,11,09,57,6.60
2013,04,11,09,58,6.70
2013,04,11,09,59,6.70
2013,04,11,10,00,6.70
2013,04,11,10,01,6.80
2013,04,11,10,02,6.80
2013,04,11,10,03,6.80
2013,04,11,10,04,6.90
2013,04,11,10,05,6.90
2013,04,11,10,06,6.90
2013,04,11,10,07,7.00
2013,04,11,10,08,7.00
2013,04,11,10,09,7.10
2013,04,11,10,10,7.10
2013,04,11,10,11,7.10
2013,04,11,10,12,7.10
2013,04,11,10,13,7.20
2013,04,11,10,14,7.30
2013,04,11,10,15,7.30
2013,04,11,10,16,7.30
2013,04,11,10,17,7.30
2013,04,11,10,18,7.30
2013,04,11,10,19,7.30
2013,04,11,10,20,7.30
2013,04,11,10,21,7.30
2013,04,11,10,22,7.20
2013,04,11,10,23,7.20
2013,04,11,10,24,7.10
2013,04,11,10,25,7.10
2013,04,11,10,26,7.10
2013,04,11,10,27,7.20
2013,04,11,10,28,7.20
2013,04,11,10,29,7.30
2013,04,11,10,30,7.30
2013,04,11,10,31,7.40
2013,04,11,10,32,7.50
2013,04,11,10,33,7.60
2013,04,11,10,34,7.60
2013,04,11,10,35,7.70
2013,04,11,10,36,7.70
2013,04,11,10,37,7.70
2013,04,11,10,38,7.80
2013,04,11,10,39,7.80
2013,04,11,10,40,7.90
2013,04,11,10,41,8.00
2013,04,11,10,42,8.00
2013,04,11,10,43,8.10
2013,04,11,10,44,8.10
2013,04,11,10,45,8.10
2013,04,11,10,46,8.20
2013,04,11,10,47,8.30
2013,04,11,10,48,8.30
2013,04,11,10,49,8.30
2013,04,11,10,50,8.30
2013,04,11,10,51,8.20
2013,04,11,10,52,8.20
2013,04,11,10,53,8.20
2013,04,11,10,54,8.20
2013,04,11,10,55,8.20
2013,04,11,10,56,8.20
2013,04,11,10,57,8.30
2013,04,11,10,58,8.30
2013,04,11,10,59,8.30
2013,04,11,11,00,8.30
2013,04,11,11,01,8.30
2013,04,11,11,02,8.40
2013,04,11,11,03,8.50
2013,04,11,11,04,8.50
2013,04,11,11,05,8.60
2013,04,11,11,06,8.60
2013,04,11,11,07,8.60
2013,04,11,11,08,8.60
2013,04,11,11,09,8.70
2013,04,11,11,10,8.70
2013,04,11,11,11,8.70
2013,04,11,11,12,8.70
2013,04,11,11,13,8.70
2013,04,11,11,14,8.60
2013,04,11,11,15,8.60
2013,04,11,11,16,8.50
2013,04,11,11,17,8.50
2013,04,11,11,18,8.60
2013,04,11,11,19,8.50
2013,04,11,11,20,8.50
2013,04,11,11,21,8.50
2013,04,11,11,22,8.60
2013,04,11,11,23,8.60
2013,04,11,11,24,8.60
2013,04,11,11,25,8.60
2013,04,11,11,26,8.70
2013,04,11,11,27,8.70
2013,04,11,11,28,8.70
2013,04,11,11,29,8.80
2013,04,11,11,30,8.80
2013,04,11,11,31,8.90
2013,04,11,11,32,8.90
2013,04,11,11,33,8.90
2013,04,11,11,34,8.80
2013,04,11,11,35,8.80
2013,04,11,11,36,8.70
2013,04,11,11,37,8.70
2013,04,11,11,38,8.70
2013,04,11,11,39,8.70
2013,04,11,11,40,8.70
2013,04,11,11,41,8.70
2013,04,11,11,42,8.60
2013,04,11,11,43,8.70
2013,04,11,11,44,8.80
2013,04,11,11,45,8.80
2013,04,11,11,46,8.90
2013,04,11,11,47,8.90
2013,04,11,11,48,8.90
2013,04,11,11,49,8.90
2013,04,11,11,50,8.90
2013,04,11,11,51,9.00
2013,04,11,11,52,9.00
2013,04,11,11,53,9.10
2013,04,11,11,54,9.20
2013,04,11,11,55,9.20
2013,04,11,11,56,9.30
2013,04,11,11,57,9.30
2013,04,11,11,58,9.30
2013,04,11,11,59,9.40
2013,04,11,12,00,9.40
2013,04,11,12,01,9.40
2013,04,11,12,02,9.40
2013,04,11,12,03,9.30
2013,04,11,12,04,9.30
2013,04,11,12,05,9.30
2013,04,11,12,06,9.30
2013,04,11,12,07,9.40
2013,04,11,12,08,9.40
2013,04,11,12,09,9.40
2013,04,11,12,10,9.40
2013,04,11,12,11,9.30
2013,04,11,12,12,9.30
2013,04,11,12,13,9.30
2013,04,11,12,14,9.40
2013,04,11,12,15,9.40
2013,04,11,12,16,9.40
2013,04,11,12,17,9.40
2013,04,11,12,18,9.40
2013,04,11,12,19,9.40
2013,04,11,12,20,9.50
2013,04,11,12,21,9.50
2013,04,11,12,22,9.50
2013,04,11,12,23,9.60
2013,04,11,12,24,9.60
2013,04,11,12,25,9.60
2013,04,11,12,26,9.70
2013,04,11,12,27,9.80
2013,04,11,12,28,9.80
2013,04,11,12,29,9.90
2013,04,11,12,30,10.00
2013,04,11,12,31,10.00
2013,04,11,12,32,10.00
2013,04,11,12,33,10.00
2013,04,11,12,34,10.00
2013,04,11,12,35,10.10
2013,04,11,12,36,10.10
2013,04,11,12,37,10.10
2013,04,11,12,38,10.10
2013,04,11,12,39,10.10
2013,04,11,12,40,10.10
2013,04,11,12,41,10.10
2013,04,11,12,42,10.00
2013,04,11,12,43,10.00
2013,04,11,12,44,10.00
2013,04,11,12,45,10.00
2013,04,11,12,46,9.90
2013,04,11,12,47,9.90
2013,04,11,12,48,10.00
2013,04,11,12,49,10.00
2013,04,11,12,50,10.10
2013,04,11,12,51,10.10
2013,04,11,12,52,10.20
2013,04,11,12,53,10.20
2013,04,11,12,54,10.20
2013,04,11,12,55,10.30
2013,04,11,12,56,10.40
2013,04,11,12,57,10.40
2013,04,11,12,58,10.40
2013,04,11,12,59,10.40
2013,04,11,13,00,10.50
2013,04,11,13,01,10.50
2013,04,11,13,02,10.40
2013,04,11,13,03,10.40
2013,04,11,13,04,10.40
2013,04,11,13,05,10.50
2013,04,11,13,06,10.60
2013,04,11,13,07,10.60
2013,04,11,13,08,10.60
2013,04,11,13,09,10.60
2013,04,11,13,10,10.50
2013,04,11,13,11,10.50
2013,04,11,13,12,10.50
2013,04,11,13,13,10.50
2013,04,11,13,14,10.50
2013,04,11,13,15,10.60
2013,04,11,13,16,10.70
2013,04,11,13,17,10.90
2013,04,11,13,18,11.10
2013,04,11,13,19,11.20
2013,04,11,13,20,11.30
2013,04,11,13,21,11.30
2013,04,11,13,22,11.20
2013,04,11,13,23,11.10
2013,04,11,13,24,11.00
2013,04,11,13,25,10.90
2013,04,11,13,26,10.80
2013,04,11,13,27,10.70
2013,04,11,13,28,10.70
2013,04,11,13,29,10.70
2013,04,11,13,30,10.70
2013,04,11,13,31,10.80
2013,04,11,13,32,10.80
2013,04,11,13,33,10.90
2013,04,11,13,34,10.90
2013,04,11,13,35,10.90
2013,04,11,13,36,10.90
2013,04,11,13,37,11.00
2013,04,11,13,38,10.90
2013,04,11,13,39,10.90
2013,04,11,13,40,10.80
2013,04,11,13,41,10.80
2013,04,11,13,42,10.80
2013,04,11,13,43,10.80
2013,04,11,13,44,10.70
2013,04,11,13,45,10.80
2013,04,11,13,46,10.80
2013,04,11,13,47,10.80
2013,04,11,13,48,10.80
2013,04,11,13,49,10.80
2013,04,11,13,50,10.90
2013,04,11,13,51,10.90
2013,04,11,13,52,11.00
2013,04,11,13,53,11.10
2013,04,11,13,54,11.30
2013,04,11,13,55,11.50
2013,04,11,13,56,11.50
2013,04,11,13,57,11.50
2013,04,11,13,58,11.50
2013,04,11,13,59,11.50
2013,04,11,14,00,11.50
2013,04,11,14,01,11.50
2013,04,11,14,02,11.40
2013,04,11,14,03,11.40
2013,04,11,14,04,11.40
2013,04,11,14,05,11.50
2013,04,11,14,06,11.50
2013,04,11,14,07,11.50
2013,04,11,14,08,11.50
2013,04,11,14,09,11.50
2013,04,11,14,10,11.60
2013,04,11,14,11,11.70
2013,04,11,14,12,11.80
2013,04,11,14,13,11.80
2013,04,11,14,14,11.80
2013,04,11,14,15,11.80
2013,04,11,14,16,11.80
2013,04,11,14,17,11.80
2013,04,11,14,18,11.90
2013,04,11,14,19,11.80
2013,04,11,14,20,11.90
2013,04,11,14,21,12.00
2013,04,11,14,22,12.10
2013,04,11,14,23,12.10
2013,04,11,14,24,12.10
2013,04,11,14,25,12.10
2013,04,11,14,26,12.10
2013,04,11,14,27,12.10
2013,04,11,14,28,12.20
2013,04,11,14,29,12.30
2013,04,11,14,30,12.40
2013,04,11,14,31,12.40
2013,04,11,14,32,12.30
2013,04,11,14,33,12.30
2013,04,11,14,34,12.30
2013,04,11,14,35,12.30
2013,04,11,14,36,12.20
2013,04,11,14,37,12.10
2013,04,11,14,38,12.10
2013,04,11,14,39,12.20
2013,04,11,14,40,12.30
2013,04,11,14,41,12.20
2013,04,11,14,42,12.20
2013,04,11,14,43,12.20
2013,04,11,14,44,12.20
2013,04,11,14,45,12.20
2013,04,11,14,46,12.20
2013,04,11,14,47,12.10
2013,04,11,14,48,12.00
2013,04,11,14,49,12.00
2013,04,11,14,50,11.90
2013,04,11,14,51,11.90
2013,04,11,14,52,11.90
2013,04,11,14,53,11.90
2013,04,11,14,54,11.90
2013,04,11,14,55,11.80
2013,04,11,14,56,12.00
2013,04,11,14,57,12.20
2013,04,11,14,58,12.40
2013,04,11,14,59,12.60
2013,04,11,15,00,12.70
2013,04,11,15,01,12.70
2013,04,11,15,02,12.70
2013,04,11,15,03,12.80
2013,04,11,15,04,12.80
2013,04,11,15,05,12.90
2013,04,11,15,06,12.90
2013,04,11,15,07,12.80
2013,04,11,15,08,12.80
2013,04,11,15,09,12.80
2013,04,11,15,10,12.70
2013,04,11,15,11,12.70
2013,04,11,15,12,12.70
2013,04,11,15,13,12.80
2013,04,11,15,14,12.70
2013,04,11,15,15,12.50
2013,04,11,15,16,12.50
2013,04,11,15,17,12.40
2013,04,11,15,18,12.50
2013,04,11,15,19,12.50
2013,04,11,15,20,12.60
2013,04,11,15,21,12.70
2013,04,11,15,22,12.80
2013,04,11,15,23,12.80
2013,04,11,15,24,12.80
2013,04,11,15,25,12.80
2013,04,11,15,26,12.90
2013,04,11,15,27,12.90
2013,04,11,15,28,12.90
2013,04,11,15,29,12.80
2013,04,11,15,30,12.80
2013,04,11,15,31,12.70
2013,04,11,15,32,12.70
2013,04,11,15,33,12.60
2013,04,11,15,34,12.50
2013,04,11,15,35,12.50
2013,04,11,15,36,12.50
2013,04,11,15,37,12.50
2013,04,11,15,38,12.50
2013,04,11,15,39,12.50
2013,04,11,15,40,12.50
2013,04,11,15,41,12.50
2013,04,11,15,42,12.60
2013,04,11,15,43,12.70
2013,04,11,15,44,12.80
2013,04,11,15,45,12.90
2013,04,11,15,46,13.00
2013,04,11,15,47,13.10
2013,04,11,15,48,13.20
2013,04,11,15,49,13.20
2013,04,11,15,50,13.10
2013,04,11,15,51,13.00
2013,04,11,15,52,12.90
2013,04,11,15,53,12.80
2013,04,11,15,54,12.80
2013,04,11,15,55,12.80
2013,04,11,15,56,12.80
2013,04,11,15,57,12.80
2013,04,11,15,58,12.80
2013,04,11,15,59,12.80
2013,04,11,16,00,12.80
2013,04,11,16,01,12.90
2013,04,11,16,02,12.90
2013,04,11,16,03,13.00
2013,04,11,16,04,13.10
2013,04,11,16,05,13.20
2013,04,11,16,06,13.40
2013,04,11,16,07,13.50
2013,04,11,16,08,13.60
2013,04,11,16,09,13.50
2013,04,11,16,10,13.40
2013,04,11,16,11,13.40
2013,04,11,16,12,13.30
2013,04,11,16,13,13.30
2013,04,11,16,14,13.30
2013,04,11,16,15,13.30
2013,04,11,16,16,13.30
2013,04,11,16,17,13.30
2013,04,11,16,18,13.30
2013,04,11,16,19,13.30
2013,04,11,16,20,13.40
2013,04,11,16,21,13.40
2013,04,11,16,22,13.40
2013,04,11,16,23,13.50
2013,04,11,16,24,13.50
2013,04,11,16,25,13.60
2013,04,11,16,26,13.60
2013,04,11,16,27,13.70
2013,04,11,16,28,13.70
2013,04,11,16,29,13.70
2013,04,11,16,30,13.60
2013,04,11,16,31,13.60
2013,04,11,16,32,13.50
2013,04,11,16,33,13.50
2013,04,11,16,34,13.50
2013,04,11,16,35,13.40
2013,04,11,16,36,13.40
2013,04,11,16,37,13.40
2013,04,11,16,38,13.30
2013,04,11,16,39,13.30
2013,04,11,16,40,13.30
2013,04,11,16,41,13.30
2013,04,11,16,42,13.30
2013,04,11,16,43,13.40
2013,04,11,16,44,13.40
2013,04,11,16,45,13.40
2013,04,11,16,46,13.40
2013,04,11,16,47,13.40
2013,04,11,16,48,13.40
2013,04,11,16,49,13.40
2013,04,11,16,50,13.50
2013,04,11,16,51,13.50
2013,04,11,16,52,13.50
2013,04,11,16,53,13.50
2013,04,11,16,54,13.30
2013,04,11,16,55,13.20
2013,04,11,16,56,13.20
2013,04,11,16,57,13.20
2013,04,11,16,58,13.20
2013,04,11,16,59,13.30
2013,04,11,17,00,13.40
2013,04,11,17,01,13.40
2013,04,11,17,02,13.50
2013,04,11,17,03,13.60
2013,04,11,17,04,13.60
2013,04,11,17,05,13.60
2013,04,11,17,06,13.60
2013,04,11,17,07,13.60
2013,04,11,17,08,13.60
2013,04,11,17,09,13.60
2013,04,11,17,10,13.60
2013,04,11,17,11,13.60
2013,04,11,17,12,13.60
2013,04,11,17,13,13.60
2013,04,11,17,14,13.60
2013,04,11,17,15,13.60
2013,04,11,17,16,13.60
2013,04,11,17,17,13.60
2013,04,11,17,18,13.50
2013,04,11,17,19,13.50
2013,04,11,17,20,13.50
2013,04,11,17,21,13.50
2013,04,11,17,22,13.60
2013,04,11,17,23,13.50
2013,04,11,17,24,13.50
2013,04,11,17,25,13.40
2013,04,11,17,26,13.40
2013,04,11,17,27,13.40
2013,04,11,17,28,13.30
2013,04,11,17,29,13.30
2013,04,11,17,30,13.30
2013,04,11,17,31,13.40
2013,04,11,17,32,13.40
2013,04,11,17,33,13.50
2013,04,11,17,34,13.60
2013,04,11,17,35,13.70
2013,04,11,17,36,13.70
2013,04,11,17,37,13.70
2013,04,11,17,38,13.70
2013,04,11,17,39,13.60
2013,04,11,17,40,13.60
2013,04,11,17,41,13.60
2013,04,11,17,42,13.60
2013,04,11,17,43,13.50
2013,04,11,17,44,13.40
2013,04,11,17,45,13.40
2013,04,11,17,46,13.40
2013,04,11,17,47,13.40
2013,04,11,17,48,13.40
2013,04,11,17,49,13.40
2013,04,11,17,50,13.50
2013,04,11,17,51,13.50
2013,04,11,17,52,13.60